This is the latest recevied weather packets stored in our database for station/object KB1FFS. If no packets are shown the sender has not sent any weather packets the latest 10 day(s).
| Time | Temp. | Humidity | Pressure | Rain* | Wind** | Luminosity | Snow |
|---|---|---|---|---|---|---|---|
| 1787538749 | 36.67° C | 33% | 1013.1 hPa | 0 mm | - | 0 W/m² | - |
| 1787538446 | 36.67° C | 34% | 1013 hPa | 0 mm | - | 0 W/m² | - |
| 1787538140 | 36.67° C | 33% | 1012.9 hPa | 0 mm | - | 0 W/m² | - |
| 1787537836 | 36.67° C | 34% | 1013.1 hPa | 0 mm | - | 0 W/m² | - |
| 1787537533 | 36.67° C | 33% | 1012.9 hPa | 0 mm | - | 0 W/m² | - |
| 1787537229 | 36.67° C | 33% | 1012.9 hPa | 0 mm | - | 0 W/m² | - |
| 1787536928 | 36.67° C | 32% | 1012.8 hPa | 0 mm | - | 0 W/m² | - |
| 1787536628 | 37.22° C | 33% | 1012.8 hPa | 0 mm | - | 0 W/m² | - |
| 1787536324 | 37.22° C | 33% | 1012.7 hPa | 0 mm | - | 0 W/m² | - |
| 1787536020 | 37.22° C | 32% | 1012.5 hPa | 0 mm | - | 0 W/m² | - |
| 1787535720 | 37.22° C | 32% | 1012.5 hPa | 0 mm | - | 0 W/m² | - |
| 1787535415 | 37.78° C | 31% | 1012.6 hPa | 0 mm | - | 0 W/m² | - |
| 1787535110 | 37.78° C | 31% | 1012.6 hPa | 0 mm | - | 0 W/m² | - |
| 1787534810 | 37.78° C | 32% | 1012.5 hPa | 0 mm | - | 0 W/m² | - |
| 1787534504 | 37.78° C | 31% | 1012.3 hPa | 0 mm | - | 0 W/m² | - |
| 1787534202 | 38.33° C | 30% | 1012.5 hPa | 0 mm | - | 0 W/m² | - |
| 1787533899 | 38.33° C | 31% | 1012.3 hPa | 0 mm | - | 1 W/m² | - |
| 1787533595 | 38.33° C | 30% | 1012.3 hPa | 0 mm | - | 2 W/m² | - |
| 1787533292 | 38.89° C | 29% | 1012.5 hPa | 0 mm | - | 3 W/m² | - |
| 1787532986 | 38.89° C | 29% | 1012.3 hPa | 0 mm | - | 5 W/m² | - |
| 1787532681 | 38.89° C | 29% | 1012.3 hPa | 0 mm | - | 8 W/m² | - |
| 1787532377 | 39.44° C | 29% | 1012.4 hPa | 0 mm | - | 12 W/m² | - |
| 1787532073 | 39.44° C | 28% | 1012.1 hPa | 0 mm | - | 15 W/m² | - |
| 1787531768 | 39.44° C | 28% | 1012.3 hPa | 0 mm | - | 21 W/m² | - |
| 1787531464 | 39.44° C | 28% | 1012.3 hPa | 0 mm | - | 26 W/m² | - |
* Rain latest hour (hover to see other rain measurements)
** Current wind speed in m/s (hover to see current wind gust speed)